EGHHEGKA

Guest
Details From EGHH - Bournemouth
To EGKA - Shoreham
Flight Number -
Tags decoded
Created
Modified
Stats Distance 59 nm / 109 km
Max Altitude 0 ft / 0 m
Waypoints 3
Social Downloads 0
Likes 0
Share VATSIM

Download

Looking for another format? Having issues loading an existing format? Contact us
Advertisement - Login to hide

Notes

Requested: EGHH GWC EGKA

Route

EGHH GWC EGKA

ID Type Via Altitude (ft/m) Position (lat/lon) Dist (leg/tot) Name
O EGHH APT - 0 / 0 50.78007 / -1.84253 - / 0 nm Bournemouth
GWC VOR - 0 / 0 50.85528 / -0.75667 41 / 41 nm GOODWOOD VOR-DME
O EGKA APT - 0 / 0 50.83580 / -0.29481 17 / 59 nm Shoreham

Altitude Profile

Advertisement - Login to hide

EGHH

Details ICAO EGHH (BOH)
Name Bournemouth
Region United Kingdom
Timezone Europe/London (UTC+1.0)
Stats Elevation 38 ft / 12 m (AMSL)
Location 50.780100° -1.842530°
Runways 1
Magnetic Variation 0.862° W

METAR

EGHH 200650Z 27005KT 240V330 9999 BKN044 19/17 Q1021

Decode

TAF

Not found

Departure Runways

ID Width Length Bearing (true/mag) Surface Threshold Overrun Markings Lighting
08 151 ft / 46 m 7,440 ft / 2,268 m 75.27° / 76.13° ASPHALT 1,424 ft / 434 m 0 ft / 0 m UK-PREC-APP EDGE THRESHOLD ALSF-I REIL-OMNI
26 151 ft / 46 m 7,440 ft / 2,268 m 255.29° / 256.15° ASPHALT 0 ft / 0 m 328 ft / 100 m UK-PREC-APP EDGE THRESHOLD CALVERT TDZ REIL-OMNI

EGKA

Details ICAO EGKA (ESH)
Name Shoreham
Region United Kingdom
Timezone Europe/London (UTC+1.0)
Stats Elevation 7 ft / 2 m (AMSL)
Location 50.835800° -0.294211°
Runways 3
Magnetic Variation 0.335° W

METAR

EGKA 200650Z 36006KT 9999 FEW043 18/16 Q1021

Decode

TAF

Not found

Destination Runways

ID Width Length Bearing (true/mag) Surface Threshold Overrun Markings Lighting
02 60 ft / 18 m 3,383 ft / 1,031 m 21.53° / 21.87° ASPHALT 538 ft / 164 m 0 ft / 0 m VISUAL EDGE THRESHOLD
06 80 ft / 24 m 2,625 ft / 800 m 63.33° / 63.67° GRASS 394 ft / 120 m 0 ft / 0 m NONE
13 59 ft / 18 m 1,775 ft / 541 m 124.94° / 125.28° GRASS 0 ft / 0 m 0 ft / 0 m NONE
20 60 ft / 18 m 3,383 ft / 1,031 m 201.53° / 201.87° ASPHALT 361 ft / 110 m 0 ft / 0 m VISUAL EDGE THRESHOLD
24 80 ft / 24 m 2,625 ft / 800 m 243.33° / 243.67° GRASS 282 ft / 86 m 0 ft / 0 m NONE
31 59 ft / 18 m 1,775 ft / 541 m 304.94° / 305.28° GRASS 433 ft / 132 m 0 ft / 0 m NONE

Popular Alternatives